JJP891 ROAH-RJAA

Flight info

Callsign JJP891
Flight time 2h 12m
Altitude 37000
Route AMAMI Y574 SHIBK Y57 YULIA Y89 GUPER Y81 RUTAS
Aircraft A320/M-SDE3FGHIRWY/LB1

Departure

Time 2026-04-18 03:12
Airport Naha International Airport (ROAH)

Arrival

Time 2026-04-18 05:24
Airport Narita International Airport (RJAA)
Time Latitude Longitude Altitude Speed Heading
2026-04-18 02:43 26.20541 127.64866 24 ft 0 kts 133°
2026-04-18 03:01 26.20548 127.64858 21 ft 4 kts 136°
2026-04-18 03:01 26.20569 127.64839 20 ft 4 kts 149°
2026-04-18 03:01 26.20593 127.64827 23 ft 4 kts 170°
2026-04-18 03:01 26.20618 127.64828 22 ft 4 kts 207°
2026-04-18 03:02 26.20633 127.64844 22 ft 2 kts 266°
2026-04-18 03:02 26.20633 127.64845 21 ft 0 kts 267°
2026-04-18 03:04 26.20633 127.64840 22 ft 2 kts 267°
2026-04-18 03:04 26.20631 127.64810 19 ft 6 kts 266°
2026-04-18 03:05 26.20603 127.64762 18 ft 9 kts 214°
2026-04-18 03:05 26.20531 127.64748 17 ft 11 kts 177°
2026-04-18 03:05 26.20450 127.64753 18 ft 12 kts 177°
2026-04-18 03:05 26.20359 127.64758 17 ft 14 kts 177°
2026-04-18 03:06 26.20254 127.64763 17 ft 16 kts 177°
2026-04-18 03:06 26.20138 127.64767 17 ft 17 kts 177°
2026-04-18 03:06 26.20012 127.64773 17 ft 19 kts 178°
2026-04-18 03:06 26.19875 127.64781 17 ft 21 kts 178°
2026-04-18 03:07 26.19761 127.64785 17 ft 16 kts 178°
2026-04-18 03:07 26.19643 127.64790 17 ft 18 kts 175°
2026-04-18 03:07 26.19515 127.64797 17 ft 19 kts 178°
2026-04-18 03:07 26.19377 127.64802 17 ft 21 kts 179°
2026-04-18 03:08 26.19280 127.64808 17 ft 21 kts 177°
2026-04-18 03:08 26.19116 127.64816 17 ft 18 kts 178°
2026-04-18 03:08 26.18986 127.64821 18 ft 20 kts 178°
2026-04-18 03:08 26.18854 127.64826 17 ft 17 kts 178°
2026-04-18 03:09 26.18776 127.64832 18 ft 17 kts 176°
2026-04-18 03:09 26.18650 127.64838 18 ft 19 kts 178°
2026-04-18 03:09 26.18512 127.64842 17 ft 21 kts 178°
2026-04-18 03:09 26.18363 127.64852 17 ft 22 kts 178°
2026-04-18 03:10 26.18283 127.64851 16 ft 9 kts 197°
2026-04-18 03:10 26.18246 127.64795 18 ft 10 kts 262°
2026-04-18 03:10 26.18242 127.64705 15 ft 13 kts 270°
2026-04-18 03:10 26.18307 127.64650 16 ft 14 kts 356°
2026-04-18 03:11 26.18425 127.64643 17 ft 33 kts 357°
2026-04-18 03:11 26.18884 127.64620 19 ft 96 kts 358°
2026-04-18 03:11 26.19725 127.64580 15 ft 143 kts 357°
2026-04-18 03:11 26.20794 127.64535 365 ft 153 kts 358°
2026-04-18 03:12 26.21877 127.64515 867 ft 157 kts 357°
2026-04-18 03:12 26.22971 127.64471 1382 ft 158 kts 354°
2026-04-18 03:12 26.24078 127.64415 1799 ft 164 kts 354°
2026-04-18 03:12 26.25291 127.64335 2000 ft 185 kts 347°
2026-04-18 03:13 26.26554 127.63813 2222 ft 204 kts 330°
2026-04-18 03:13 26.27863 127.62988 2416 ft 228 kts 327°
2026-04-18 03:13 26.29291 127.62019 2784 ft 253 kts 326°
2026-04-18 03:13 26.30842 127.60972 3623 ft 266 kts 326°
2026-04-18 03:14 26.32444 127.59919 4853 ft 269 kts 327°
2026-04-18 03:14 26.34070 127.58871 6058 ft 270 kts 327°
2026-04-18 03:14 26.35712 127.57826 7044 ft 272 kts 327°
2026-04-18 03:14 26.37367 127.56781 7804 ft 275 kts 327°
2026-04-18 03:15 26.39027 127.55704 8556 ft 277 kts 321°
2026-04-18 03:15 26.40334 127.54195 9252 ft 274 kts 298°
2026-04-18 03:15 26.40999 127.52215 9965 ft 274 kts 277°
2026-04-18 03:15 26.40933 127.50075 10396 ft 287 kts 256°
2026-04-18 03:16 26.40008 127.48010 10541 ft 313 kts 233°
2026-04-18 03:16 26.38543 127.46116 10836 ft 328 kts 231°
2026-04-18 03:16 26.37014 127.44199 11389 ft 333 kts 229°
2026-04-18 03:16 26.35209 127.42558 11984 ft 341 kts 215°
2026-04-18 03:17 26.33030 127.41427 12596 ft 349 kts 201°
2026-04-18 03:17 26.30617 127.40921 13184 ft 359 kts 187°
2026-04-18 03:17 26.28094 127.40913 13764 ft 364 kts 184°
2026-04-18 03:17 26.25551 127.40939 14336 ft 367 kts 184°
2026-04-18 03:18 26.22984 127.40968 14903 ft 369 kts 184°
2026-04-18 03:18 26.20409 127.41000 15422 ft 372 kts 184°
2026-04-18 03:18 26.17811 127.41030 15967 ft 374 kts 184°
2026-04-18 03:18 26.15203 127.41309 16470 ft 383 kts 170°
2026-04-18 03:19 26.12722 127.42472 16965 ft 395 kts 151°
2026-04-18 03:19 26.10655 127.44542 17458 ft 406 kts 131°
2026-04-18 03:19 26.09290 127.47323 17956 ft 416 kts 110°
2026-04-18 03:19 26.08838 127.50517 18392 ft 423 kts 89°
2026-04-18 03:20 26.09265 127.53765 18794 ft 427 kts 79°
2026-04-18 03:20 26.09861 127.57012 19218 ft 430 kts 78°
2026-04-18 03:20 26.10471 127.60278 19642 ft 432 kts 78°
2026-04-18 03:20 26.11078 127.63525 20043 ft 435 kts 78°
2026-04-18 03:21 26.11694 127.66833 20455 ft 438 kts 79°
2026-04-18 03:21 26.12307 127.70165 20891 ft 441 kts 79°
2026-04-18 03:21 26.12917 127.73518 21286 ft 444 kts 79°
2026-04-18 03:21 26.13529 127.76898 21677 ft 446 kts 79°
2026-04-18 03:22 26.14142 127.80297 22083 ft 449 kts 79°
2026-04-18 03:22 26.14758 127.83708 22464 ft 452 kts 79°
2026-04-18 03:22 26.15378 127.87147 22834 ft 454 kts 79°
2026-04-18 03:22 26.16242 127.90537 23192 ft 457 kts 68°
2026-04-18 03:23 26.17650 127.93716 23549 ft 458 kts 57°
2026-04-18 03:23 26.19563 127.96553 23825 ft 459 kts 45°
2026-04-18 03:23 26.21905 127.98962 24113 ft 458 kts 34°
2026-04-18 03:23 26.24565 128.00904 24385 ft 458 kts 28°
2026-04-18 03:24 26.27299 128.02747 24673 ft 461 kts 28°
2026-04-18 03:24 26.30046 128.04604 24953 ft 463 kts 28°
2026-04-18 03:24 26.32809 128.06475 25230 ft 466 kts 28°
2026-04-18 03:24 26.35583 128.08357 25505 ft 468 kts 28°
2026-04-18 03:25 26.38380 128.10253 25774 ft 471 kts 28°
2026-04-18 03:25 26.41190 128.12159 26078 ft 474 kts 28°
2026-04-18 03:25 26.44014 128.14075 26421 ft 476 kts 28°
2026-04-18 03:25 26.46852 128.16002 26688 ft 479 kts 28°
2026-04-18 03:26 26.49712 128.17949 26930 ft 482 kts 27°
2026-04-18 03:26 26.52585 128.19903 27184 ft 485 kts 27°
2026-04-18 03:26 26.55473 128.21862 27456 ft 487 kts 27°
2026-04-18 03:26 26.58378 128.23833 27723 ft 490 kts 27°
2026-04-18 03:27 26.61293 128.25816 27992 ft 492 kts 27°
2026-04-18 03:27 26.64196 128.27794 28270 ft 495 kts 27°
2026-04-18 03:27 26.67081 128.29923 28598 ft 501 kts 34°
2026-04-18 03:27 26.69699 128.32528 28969 ft 507 kts 44°
2026-04-18 03:28 26.71985 128.35548 29359 ft 509 kts 50°
2026-04-18 03:28 26.74181 128.38645 29726 ft 509 kts 49°
2026-04-18 03:28 26.76386 128.41747 30077 ft 509 kts 49°
2026-04-18 03:28 26.78597 128.44851 30390 ft 510 kts 49°
2026-04-18 03:29 26.80807 128.47950 30709 ft 509 kts 49°
2026-04-18 03:29 26.83022 128.51060 31039 ft 509 kts 49°
2026-04-18 03:29 26.85235 128.54175 31370 ft 510 kts 50°
2026-04-18 03:29 26.87440 128.57285 31692 ft 510 kts 50°
2026-04-18 03:30 26.89646 128.60404 32027 ft 510 kts 50°
2026-04-18 03:30 26.91963 128.63414 32367 ft 507 kts 42°
2026-04-18 03:30 26.94602 128.66003 32684 ft 503 kts 32°
2026-04-18 03:30 26.97528 128.68116 33032 ft 497 kts 24°
2026-04-18 03:31 27.00571 128.69946 33358 ft 497 kts 24°
2026-04-18 03:31 27.03618 128.71782 33700 ft 497 kts 23°
2026-04-18 03:31 27.06619 128.73597 33988 ft 497 kts 24°
2026-04-18 03:31 27.09666 128.75446 34248 ft 497 kts 24°
2026-04-18 03:32 27.12706 128.77292 34518 ft 497 kts 24°
2026-04-18 03:32 27.15739 128.79136 34771 ft 496 kts 24°
2026-04-18 03:32 27.18774 128.80986 35022 ft 496 kts 24°
2026-04-18 03:32 27.21806 128.82836 35298 ft 496 kts 24°
2026-04-18 03:33 27.24843 128.84688 35523 ft 497 kts 23°
2026-04-18 03:33 27.27887 128.86539 35732 ft 497 kts 23°
2026-04-18 03:33 27.30924 128.88387 35958 ft 497 kts 23°
2026-04-18 03:33 27.33966 128.90240 36199 ft 497 kts 24°
2026-04-18 03:34 27.37002 128.92094 36475 ft 496 kts 24°
2026-04-18 03:34 27.40030 128.93944 36758 ft 496 kts 24°
2026-04-18 03:34 27.43067 128.95800 36924 ft 498 kts 23°
2026-04-18 03:34 27.46129 128.97671 36938 ft 504 kts 23°
2026-04-18 03:35 27.52340 129.01465 36942 ft 510 kts 24°
2026-04-18 03:35 27.58577 129.05292 36949 ft 511 kts 24°
2026-04-18 03:36 27.64816 129.09130 36951 ft 511 kts 24°
2026-04-18 03:36 27.71054 129.12967 36937 ft 511 kts 24°
2026-04-18 03:37 27.77301 129.16809 36954 ft 510 kts 24°
2026-04-18 03:37 27.83537 129.20650 36974 ft 511 kts 24°
2026-04-18 03:38 27.89777 129.24501 36965 ft 511 kts 24°
2026-04-18 03:38 27.95984 129.28339 36962 ft 512 kts 24°
2026-04-18 03:39 28.02234 129.32207 36975 ft 512 kts 24°
2026-04-18 03:39 28.08485 129.36075 36955 ft 513 kts 24°
2026-04-18 03:40 28.14758 129.39956 36963 ft 513 kts 24°
2026-04-18 03:40 28.21019 129.43845 36978 ft 513 kts 24°
2026-04-18 03:41 28.27287 129.47746 36958 ft 514 kts 23°
2026-04-18 03:41 28.33558 129.51649 36953 ft 514 kts 24°
2026-04-18 03:42 28.39495 129.56224 36960 ft 524 kts 42°
2026-04-18 03:42 28.41891 129.59361 36932 ft 527 kts 53°
2026-04-18 03:42 28.43765 129.62938 36934 ft 528 kts 65°
2026-04-18 03:43 28.45071 129.66833 36929 ft 526 kts 77°
2026-04-18 03:43 28.45759 129.70896 36933 ft 523 kts 86°
2026-04-18 03:43 28.46650 129.79098 36935 ft 524 kts 86°
2026-04-18 03:44 28.47519 129.87329 36982 ft 525 kts 86°
2026-04-18 03:44 28.48386 129.95502 36968 ft 524 kts 86°
2026-04-18 03:45 28.49272 130.03728 36951 ft 524 kts 86°
2026-04-18 03:45 28.50486 130.11908 36980 ft 527 kts 74°
2026-04-18 03:46 28.53505 130.19483 36990 ft 527 kts 56°
2026-04-18 03:46 28.57652 130.26350 36984 ft 527 kts 54°
2026-04-18 03:47 28.61817 130.33230 36986 ft 527 kts 54°
2026-04-18 03:47 28.65960 130.40101 36996 ft 527 kts 54°
2026-04-18 03:48 28.70109 130.46990 36987 ft 527 kts 54°
2026-04-18 03:48 28.74259 130.53877 36999 ft 527 kts 54°
2026-04-18 03:49 28.78413 130.60765 37000 ft 527 kts 54°
2026-04-18 03:49 28.82559 130.67655 37000 ft 527 kts 54°
2026-04-18 03:50 28.86695 130.74563 37012 ft 528 kts 54°
2026-04-18 03:50 28.90131 130.80313 37001 ft 528 kts 54°
2026-04-18 03:51 28.94278 130.87236 37002 ft 528 kts 54°
2026-04-18 03:51 28.98422 130.94174 36997 ft 529 kts 54°
2026-04-18 03:52 29.02562 131.01124 37015 ft 529 kts 54°
2026-04-18 03:52 29.07385 131.09223 37009 ft 530 kts 54°
2026-04-18 03:53 29.10861 131.15069 36993 ft 530 kts 54°
2026-04-18 03:53 29.14997 131.22050 37008 ft 530 kts 54°
2026-04-18 03:54 29.19128 131.29034 37013 ft 530 kts 54°
2026-04-18 03:54 29.23224 131.35979 37002 ft 529 kts 54°
2026-04-18 03:55 29.27341 131.42961 37027 ft 529 kts 54°
2026-04-18 03:55 29.31462 131.49943 37020 ft 529 kts 54°
2026-04-18 03:56 29.35582 131.56933 37006 ft 529 kts 54°
2026-04-18 03:56 29.39688 131.63939 37041 ft 529 kts 54°
2026-04-18 03:57 29.45840 131.74453 37025 ft 530 kts 54°
2026-04-18 03:58 29.49950 131.81482 37018 ft 530 kts 54°
2026-04-18 03:58 29.54062 131.88526 37035 ft 530 kts 54°
2026-04-18 03:59 29.58136 131.95523 37029 ft 530 kts 54°
2026-04-18 03:59 29.62229 132.02573 37017 ft 530 kts 54°
2026-04-18 04:00 29.66436 132.09512 37043 ft 528 kts 47°
2026-04-18 04:00 29.71097 132.16040 37033 ft 528 kts 47°
2026-04-18 04:01 29.75770 132.22584 37020 ft 529 kts 48°
2026-04-18 04:01 29.80440 132.29139 37044 ft 529 kts 47°
2026-04-18 04:02 29.85106 132.35702 37034 ft 530 kts 47°
2026-04-18 04:02 29.89769 132.42278 37022 ft 530 kts 48°
2026-04-18 04:03 29.94426 132.48871 37045 ft 530 kts 48°
2026-04-18 04:03 29.99096 132.55470 37042 ft 531 kts 47°
2026-04-18 04:04 30.03768 132.62076 37026 ft 531 kts 48°
2026-04-18 04:04 30.08430 132.68697 37050 ft 532 kts 48°
2026-04-18 04:05 30.13091 132.75333 37041 ft 532 kts 48°
2026-04-18 04:05 30.17759 132.81985 37041 ft 533 kts 48°
2026-04-18 04:06 30.22399 132.88608 37050 ft 533 kts 48°
2026-04-18 04:06 30.27069 132.95268 37046 ft 534 kts 48°
2026-04-18 04:07 30.31754 133.01957 37044 ft 534 kts 48°
2026-04-18 04:07 30.36425 133.08655 37057 ft 535 kts 48°
2026-04-18 04:08 30.41094 133.15369 37049 ft 535 kts 48°
2026-04-18 04:08 30.45763 133.22093 37050 ft 536 kts 48°
2026-04-18 04:09 30.50438 133.28829 37049 ft 535 kts 48°
2026-04-18 04:09 30.55106 133.35560 37056 ft 535 kts 48°
2026-04-18 04:10 30.59739 133.42262 37073 ft 535 kts 48°
2026-04-18 04:10 30.64154 133.48671 37028 ft 530 kts 48°
2026-04-18 04:11 30.68783 133.55391 37034 ft 533 kts 48°
2026-04-18 04:11 30.73418 133.62117 37052 ft 535 kts 48°
2026-04-18 04:12 30.78066 133.68877 37037 ft 535 kts 48°
2026-04-18 04:12 30.82718 133.75659 37053 ft 536 kts 48°
2026-04-18 04:13 30.87366 133.82438 37067 ft 537 kts 48°
2026-04-18 04:13 30.92019 133.89244 37052 ft 537 kts 48°
2026-04-18 04:14 30.96673 133.96048 37075 ft 537 kts 48°
2026-04-18 04:14 31.01328 134.02877 37063 ft 538 kts 48°
2026-04-18 04:15 31.05945 134.09674 37059 ft 538 kts 48°
2026-04-18 04:15 31.10584 134.16516 37082 ft 538 kts 48°
2026-04-18 04:16 31.15235 134.23385 37057 ft 539 kts 48°
2026-04-18 04:16 31.19878 134.30242 37063 ft 539 kts 48°
2026-04-18 04:17 31.24529 134.37117 37080 ft 539 kts 48°
2026-04-18 04:17 31.29179 134.44007 37063 ft 540 kts 48°
2026-04-18 04:18 31.33826 134.50906 37088 ft 540 kts 48°
2026-04-18 04:18 31.38471 134.57814 37076 ft 540 kts 48°
2026-04-18 04:19 31.43107 134.64739 37068 ft 540 kts 48°
2026-04-18 04:19 31.47748 134.71665 37098 ft 540 kts 48°
2026-04-18 04:20 31.52387 134.78598 37086 ft 541 kts 48°
2026-04-18 04:20 31.57021 134.85543 37102 ft 541 kts 49°
2026-04-18 04:21 31.61660 134.92512 37090 ft 542 kts 48°
2026-04-18 04:21 31.66290 134.99491 37087 ft 542 kts 49°
2026-04-18 04:22 31.70884 135.06426 37078 ft 542 kts 49°
2026-04-18 04:22 31.75293 135.13626 37077 ft 544 kts 53°
2026-04-18 04:23 31.79345 135.21128 37075 ft 544 kts 56°
2026-04-18 04:23 31.83342 135.28701 37077 ft 544 kts 55°
2026-04-18 04:24 31.87438 135.36189 37081 ft 543 kts 54°
2026-04-18 04:24 31.91589 135.43619 37084 ft 543 kts 54°
2026-04-18 04:25 31.95731 135.51070 37081 ft 544 kts 54°
2026-04-18 04:25 31.99804 135.58506 37101 ft 544 kts 54°
2026-04-18 04:26 32.03892 135.65998 37091 ft 544 kts 54°
2026-04-18 04:26 32.07995 135.73496 37087 ft 544 kts 54°
2026-04-18 04:27 32.12099 135.81000 37083 ft 544 kts 54°
2026-04-18 04:27 32.16196 135.88511 37083 ft 544 kts 54°
2026-04-18 04:28 32.20280 135.96029 37090 ft 544 kts 54°
2026-04-18 04:28 32.24358 136.03559 37087 ft 544 kts 54°
2026-04-18 04:29 32.28444 136.11098 37084 ft 544 kts 54°
2026-04-18 04:29 32.32528 136.18630 37094 ft 544 kts 54°
2026-04-18 04:30 32.36606 136.26171 37090 ft 544 kts 54°
2026-04-18 04:30 32.40687 136.33727 37091 ft 544 kts 54°
2026-04-18 04:31 32.44725 136.41236 37093 ft 545 kts 54°
2026-04-18 04:31 32.48787 136.48811 37090 ft 545 kts 54°
2026-04-18 04:32 32.52845 136.56385 37088 ft 545 kts 54°
2026-04-18 04:32 32.56904 136.63958 37090 ft 544 kts 54°
2026-04-18 04:33 32.60960 136.71548 37091 ft 544 kts 54°
2026-04-18 04:33 32.65005 136.79147 37103 ft 544 kts 54°
2026-04-18 04:34 32.69040 136.86746 37097 ft 545 kts 54°
2026-04-18 04:34 32.73085 136.94364 37095 ft 545 kts 54°
2026-04-18 04:35 32.77125 137.01977 37100 ft 545 kts 54°
2026-04-18 04:35 32.81163 137.09620 37088 ft 546 kts 54°
2026-04-18 04:36 32.85164 137.17220 37086 ft 546 kts 54°
2026-04-18 04:36 32.89204 137.24892 37087 ft 547 kts 54°
2026-04-18 04:37 32.93234 137.32563 37090 ft 547 kts 54°
2026-04-18 04:37 32.97266 137.40255 37093 ft 547 kts 54°
2026-04-18 04:38 33.01288 137.47949 37092 ft 547 kts 54°
2026-04-18 04:38 33.05311 137.55657 37097 ft 547 kts 54°
2026-04-18 04:39 33.09327 137.63362 37108 ft 547 kts 54°
2026-04-18 04:39 33.13339 137.71082 37102 ft 547 kts 54°
2026-04-18 04:40 33.17348 137.78813 37096 ft 547 kts 54°
2026-04-18 04:40 33.21331 137.86500 37108 ft 548 kts 54°
2026-04-18 04:41 33.25330 137.94244 37103 ft 548 kts 54°
2026-04-18 04:41 33.28677 138.00744 37104 ft 548 kts 54°
2026-04-18 04:42 33.33324 138.09763 37103 ft 548 kts 54°
2026-04-18 04:42 33.36643 138.16228 37099 ft 548 kts 54°
2026-04-18 04:43 33.40627 138.24002 37099 ft 548 kts 54°
2026-04-18 04:43 33.44611 138.31791 37102 ft 548 kts 54°
2026-04-18 04:44 33.48589 138.39580 37102 ft 548 kts 54°
2026-04-18 04:44 33.52568 138.47389 37115 ft 549 kts 54°
2026-04-18 04:45 33.56543 138.55199 37109 ft 549 kts 54°
2026-04-18 04:45 33.60509 138.63012 37112 ft 549 kts 54°
2026-04-18 04:46 33.64474 138.70839 37116 ft 549 kts 54°
2026-04-18 04:46 33.68436 138.78671 37108 ft 549 kts 54°
2026-04-18 04:47 33.72390 138.86510 37110 ft 549 kts 54°
2026-04-18 04:47 33.76333 138.94366 37109 ft 549 kts 54°
2026-04-18 04:48 33.80249 139.02184 37120 ft 550 kts 54°
2026-04-18 04:48 33.84221 139.10120 37121 ft 550 kts 54°
2026-04-18 04:49 33.88147 139.17953 37116 ft 550 kts 54°
2026-04-18 04:49 33.92103 139.25856 37103 ft 551 kts 54°
2026-04-18 04:50 33.96041 139.33771 37101 ft 551 kts 55°
2026-04-18 04:50 33.99969 139.41703 37100 ft 551 kts 55°
2026-04-18 04:51 34.03897 139.49648 37096 ft 551 kts 55°
2026-04-18 04:51 34.07983 139.57447 37099 ft 546 kts 46°
2026-04-18 04:52 34.12727 139.64578 37106 ft 544 kts 45°
2026-04-18 04:52 34.17468 139.71707 37102 ft 545 kts 45°
2026-04-18 04:53 34.22202 139.78843 37113 ft 545 kts 45°
2026-04-18 04:53 34.26933 139.86007 37109 ft 545 kts 45°
2026-04-18 04:54 34.31662 139.93183 37110 ft 545 kts 45°
2026-04-18 04:54 34.36349 140.00315 37116 ft 545 kts 45°
2026-04-18 04:55 34.41076 140.07499 37112 ft 545 kts 45°
2026-04-18 04:55 34.45780 140.14727 37096 ft 548 kts 50°
2026-04-18 04:56 34.51934 140.26495 37093 ft 552 kts 53°
2026-04-18 04:56 34.56000 140.34396 37100 ft 552 kts 53°
2026-04-18 04:57 34.60076 140.42308 36779 ft 554 kts 53°
2026-04-18 04:57 34.62129 140.46290 35553 ft 559 kts 53°
2026-04-18 04:57 34.64196 140.50306 34337 ft 562 kts 54°
2026-04-18 04:58 34.66242 140.54292 33081 ft 561 kts 54°
2026-04-18 04:58 34.68394 140.58204 32086 ft 550 kts 47°
2026-04-18 04:58 34.70915 140.61569 31428 ft 529 kts 37°
2026-04-18 04:58 34.73754 140.64331 30899 ft 516 kts 26°
2026-04-18 04:59 34.76827 140.66480 30354 ft 502 kts 17°
2026-04-18 04:59 34.80035 140.67987 29762 ft 487 kts
2026-04-18 04:59 34.83275 140.68866 29260 ft 469 kts 359°
2026-04-18 04:59 34.86473 140.69285 28773 ft 459 kts 356°
2026-04-18 05:00 34.89638 140.69671 28267 ft 454 kts 356°
2026-04-18 05:00 34.92759 140.70062 27792 ft 448 kts 357°
2026-04-18 05:00 34.95849 140.70453 27306 ft 443 kts 357°
2026-04-18 05:00 34.98900 140.70840 26833 ft 438 kts 357°
2026-04-18 05:01 35.01920 140.71221 26366 ft 434 kts 358°
2026-04-18 05:01 35.04867 140.71689 25917 ft 435 kts
2026-04-18 05:01 35.07792 140.72694 25470 ft 440 kts 14°
2026-04-18 05:01 35.10584 140.74299 24993 ft 446 kts 25°
2026-04-18 05:02 35.13177 140.76382 24534 ft 446 kts 29°
2026-04-18 05:02 35.15734 140.78515 24084 ft 443 kts 29°
2026-04-18 05:02 35.18278 140.80633 23636 ft 441 kts 30°
2026-04-18 05:02 35.20804 140.82733 23154 ft 437 kts 30°
2026-04-18 05:03 35.23308 140.84814 22722 ft 432 kts 30°
2026-04-18 05:03 35.25780 140.86870 22283 ft 428 kts 30°
2026-04-18 05:03 35.28238 140.88917 21850 ft 424 kts 30°
2026-04-18 05:03 35.30665 140.90937 21407 ft 420 kts 30°
2026-04-18 05:04 35.33072 140.92944 20952 ft 417 kts 31°
2026-04-18 05:04 35.35462 140.94942 20511 ft 414 kts 31°
2026-04-18 05:04 35.37833 140.96923 20043 ft 412 kts 31°
2026-04-18 05:04 35.40159 140.98866 19582 ft 409 kts 31°
2026-04-18 05:05 35.42505 141.00827 19118 ft 407 kts 31°
2026-04-18 05:05 35.44840 141.02778 18650 ft 405 kts 32°
2026-04-18 05:05 35.47245 141.04545 18146 ft 401 kts 22°
2026-04-18 05:05 35.49835 141.05710 17683 ft 392 kts 10°
2026-04-18 05:06 35.52493 141.06243 17219 ft 383 kts 359°
2026-04-18 05:06 35.55120 141.06166 16751 ft 373 kts 348°
2026-04-18 05:06 35.57661 141.05683 16313 ft 368 kts 346°
2026-04-18 05:06 35.60188 141.05185 15867 ft 365 kts 346°
2026-04-18 05:07 35.62694 141.04694 15422 ft 363 kts 346°
2026-04-18 05:07 35.65177 141.04207 14975 ft 361 kts 346°
2026-04-18 05:07 35.67644 141.03725 14535 ft 359 kts 346°
2026-04-18 05:07 35.70101 141.03242 14082 ft 357 kts 346°
2026-04-18 05:08 35.72540 141.02684 13568 ft 353 kts 339°
2026-04-18 05:08 35.74789 141.01566 13108 ft 344 kts 326°
2026-04-18 05:08 35.76717 140.99915 12692 ft 334 kts 313°
2026-04-18 05:08 35.78269 140.97850 12285 ft 324 kts 301°
2026-04-18 05:09 35.79428 140.95552 11888 ft 318 kts 295°
2026-04-18 05:09 35.80524 140.93201 11499 ft 315 kts 295°
2026-04-18 05:09 35.81613 140.90874 11115 ft 313 kts 295°
2026-04-18 05:09 35.82706 140.88548 10725 ft 312 kts 296°
2026-04-18 05:10 35.83788 140.86245 10400 ft 308 kts 295°
2026-04-18 05:10 35.84838 140.84008 10278 ft 298 kts 295°
2026-04-18 05:10 35.85858 140.81831 10105 ft 290 kts 295°
2026-04-18 05:10 35.86851 140.79693 10017 ft 285 kts 295°
2026-04-18 05:11 35.87834 140.77566 9754 ft 286 kts 296°
2026-04-18 05:11 35.88809 140.75457 9440 ft 281 kts 296°
2026-04-18 05:11 35.89774 140.73373 9042 ft 277 kts 296°
2026-04-18 05:11 35.90732 140.71303 8700 ft 278 kts 296°
2026-04-18 05:12 35.91688 140.69239 8359 ft 276 kts 296°
2026-04-18 05:12 35.92641 140.67181 8029 ft 275 kts 296°
2026-04-18 05:12 35.93586 140.65135 7693 ft 274 kts 297°
2026-04-18 05:12 35.94529 140.63095 7368 ft 273 kts 297°
2026-04-18 05:13 35.95467 140.61064 7045 ft 271 kts 297°
2026-04-18 05:13 35.96399 140.59045 6722 ft 270 kts 297°
2026-04-18 05:13 35.97326 140.57047 6458 ft 266 kts 297°
2026-04-18 05:13 35.98196 140.55063 6060 ft 267 kts 291°
2026-04-18 05:14 35.98753 140.52891 5720 ft 265 kts 282°
2026-04-18 05:14 35.99196 140.50691 5391 ft 264 kts 282°
2026-04-18 05:14 35.99645 140.48498 5063 ft 262 kts 282°
2026-04-18 05:14 36.00095 140.46307 4545 ft 268 kts 282°
2026-04-18 05:15 36.00547 140.44098 4052 ft 262 kts 282°
2026-04-18 05:15 36.00986 140.41963 3728 ft 250 kts 282°
2026-04-18 05:15 36.01401 140.39952 3598 ft 235 kts 281°
2026-04-18 05:15 36.01793 140.38042 3492 ft 223 kts 282°
2026-04-18 05:16 36.02159 140.36238 3401 ft 212 kts 281°
2026-04-18 05:16 36.02513 140.34481 3313 ft 210 kts 280°
2026-04-18 05:16 36.02871 140.32696 3222 ft 218 kts 280°
2026-04-18 05:16 36.03246 140.30830 3114 ft 228 kts 281°
2026-04-18 05:17 36.03607 140.28915 3001 ft 228 kts 274°
2026-04-18 05:17 36.03622 140.27025 2991 ft 212 kts 266°
2026-04-18 05:17 36.03430 140.25315 2997 ft 197 kts 241°
2026-04-18 05:17 36.02549 140.24181 3004 ft 172 kts 204°
2026-04-18 05:18 36.01454 140.23956 2991 ft 155 kts 180°
2026-04-18 05:18 36.00356 140.23973 3009 ft 164 kts 179°
2026-04-18 05:18 35.99205 140.24318 3012 ft 178 kts 155°
2026-04-18 05:18 35.98110 140.25069 3004 ft 181 kts 153°
2026-04-18 05:19 35.97015 140.25853 3000 ft 182 kts 152°
2026-04-18 05:19 35.95921 140.26645 3000 ft 183 kts 152°
2026-04-18 05:19 35.94831 140.27436 3001 ft 182 kts 152°
2026-04-18 05:19 35.93737 140.28230 2984 ft 183 kts 152°
2026-04-18 05:20 35.92665 140.29009 2827 ft 173 kts 152°
2026-04-18 05:20 35.91660 140.29739 2640 ft 162 kts 152°
2026-04-18 05:20 35.90724 140.30419 2447 ft 148 kts 153°
2026-04-18 05:20 35.89867 140.31041 2257 ft 140 kts 152°
2026-04-18 05:21 35.89034 140.31644 2076 ft 138 kts 153°
2026-04-18 05:21 35.88201 140.32247 1883 ft 140 kts 152°
2026-04-18 05:21 35.87354 140.32860 1705 ft 143 kts 151°
2026-04-18 05:21 35.86491 140.33486 1506 ft 144 kts 151°
2026-04-18 05:22 35.85611 140.34123 1321 ft 149 kts 154°
2026-04-18 05:22 35.84734 140.34760 1101 ft 141 kts 154°
2026-04-18 05:22 35.83914 140.35354 930 ft 134 kts 154°
2026-04-18 05:22 35.83108 140.35937 755 ft 136 kts 152°
2026-04-18 05:23 35.82295 140.36525 590 ft 134 kts 151°
2026-04-18 05:23 35.81502 140.37100 417 ft 134 kts 151°
2026-04-18 05:23 35.80695 140.37691 252 ft 135 kts 151°
2026-04-18 05:23 35.79902 140.38253 148 ft 123 kts 151°
2026-04-18 05:24 35.79296 140.38695 146 ft 76 kts 150°
2026-04-18 05:24 35.78981 140.38910 143 ft 27 kts 161°
2026-04-18 05:24 35.78826 140.38939 143 ft 22 kts 173°
2026-04-18 05:24 35.78722 140.38953 144 ft 14 kts 174°
2026-04-18 05:25 35.78618 140.38966 144 ft 16 kts 174°
2026-04-18 05:25 35.78516 140.39035 144 ft 18 kts 132°
2026-04-18 05:25 35.78426 140.39122 143 ft 14 kts 161°
2026-04-18 05:25 35.78325 140.39152 143 ft 16 kts 166°
2026-04-18 05:26 35.78214 140.39187 143 ft 11 kts 165°
2026-04-18 05:26 35.78135 140.39179 143 ft 13 kts 221°
2026-04-18 05:26 35.78083 140.39074 143 ft 16 kts 238°
2026-04-18 05:26 35.78060 140.38939 143 ft 18 kts 288°
2026-04-18 05:27 35.78084 140.38827 143 ft 11 kts 267°
2026-04-18 05:27 35.78034 140.38749 143 ft 13 kts 222°
2026-04-18 05:27 35.78019 140.38683 143 ft 9 kts 320°
2026-04-18 05:27 35.78059 140.38653 143 ft 3 kts 329°
2026-04-18 05:28 35.78060 140.38653 143 ft 0 kts 329°